Weather in Shulginka

Russia / Altai Krai     52°26′13″N   85°19′00″E
temp.,
°C
wind,
m/s
gust,
m/s
humid.,
%
clouds,
%
prec.,
mm/h
press.,
hPa
HPBL,
m
7 may, fri
fri701:00+17sse3461100 0.0 100555
04:00+17sw2350100 0.0 100524
07:00+17sw3655100 0.0 100688
10:00+18wnw51162100 0.0 1008493
13:00+17wnw6968100 0.1 1011764
16:00+14wsw5981100 0.9 1014542
19:00+16sw61068100 1.0 1015601
22:00+12wsw4777100 0.0 1018108
8 may, sat
sat801:00+10w337096 0.0 101933
04:00+8w3368100 0.0 102028
07:00+9w22652 0.0 102151
10:00+14wnw23460 0.0 1021600
13:00+17wnw33330 0.0 10201424
16:00+19nw24290 0.0 10191702
19:00+19nnw23350 0.0 1018622
22:00+13ese22530 0.0 101910
9 may, sun
sun901:00+11s22560 0.0 101918
04:00+10sw22613 0.0 101814
07:00+11sw23635 0.0 101966
10:00+17wsw3446100 0.0 1017410
13:00+21nw343788 0.0 10162001
16:00+22nnw353418 0.0 10152469
19:00+18n5847100 0.0 1015538
22:00+13ne4115711 0.0 1016279
10 may, mon
mon1001:00+9ne4115393 0.0 1016261
04:00+8ne411581 0.0 1015248
07:00+7ne4106399 0.0 1014280
10:00+12ene6756100 0.0 1012484
13:00+17ene564783 0.0 1010972
16:00+19ene454393 0.1 10081157
19:00+18ene594997 0.3 1007676
22:00+12ene386796 0.4 1007226
11 may, tue
tue1101:00+10nne3470100 0.8 100687
04:00+8ne3570100 0.0 1005106
07:00+9n2372100 0.1 1006105
10:00+12w236287 0.3 1008507
13:00+16nw56455 0.3 10091242
16:00+19nw35375 0.0 10091920
19:00+18nne234290 0.0 1010851
22:00+12ene3471100 0.0 101171